Погода в Хайдельберге

Германия     49˚24′35″N   8˚41′04″E
темп.,
°C
ветер,
м/с
пор.,
м/с
влажн.,
%
обл.,
%
осадки,
мм/ч
давл.,
гПа
погр.,
м
17 января, вс
вс1701:00−3˚ю3596100 1.6 1020363
04:00−3˚ююв2497100 0.7 1017207
07:00−3˚ююв2398100 1.3 1018146
10:00−1˚ююз1295100 0.6 1018191
13:00зюз1194100 0.8 1019221
16:00−1˚зюз1197100 0.2 102198
19:00юз1197100 0.5 102344
22:00+1˚зюз249999 0.3 1024175
18 января, пн
пн1801:00+1˚зюз299999 0.8 1025369
04:00+1˚з2899100 0.2 1025410
07:00юз2698100 0.9 1026363
10:00юз2598100 0.3 1027322
13:00+1˚зюз3698100 0.6 1027379
16:00+1˚зюз3998100 0.6 1026554
19:00+1˚юз41098100 0.6 1025537
22:00+1˚юз41095100 0.1 1024620
19 января, вт
вт1901:00юз41094100 0.1 1024473
04:00−1˚ююз31194100 0.0 1021549
07:00ююз51387100 0.1 1018691
10:00+1˚юз61582100 0.1 1016859
13:00+2˚юз71684100 0.3 1015874
16:00+2˚юз61489100 0.3 1014697
19:00+2˚юз41390100 0.6 1014686
22:00+2˚ююз3138194 0.0 1013467
20 января, ср
ср2001:00ююз388393 0.0 1012201
04:00ю41182100 0.0 1010344
07:00ююз4128099 0.0 1009345
10:00+1˚ю31279100 0.0 1008396
13:00+3˚ююз3118098 0.0 1007412
16:00+3˚ююв238598 0.0 100477
19:00+2˚юв238696 0.0 100453
22:00+1˚юв237733 0.0 100436
21 января, чт
чт2101:00+1˚юв337530 0.0 100248
04:00юв337774 0.0 100162
07:00+1˚ююв368087 0.0 1000180
10:00+4˚ю3177989 0.2 999700
13:00+5˚ююз4148094 0.2 999669
16:00+5˚юз31097100 0.9 999419
19:00+4˚ююз31396100 2.2 1000793
22:00+4˚ю3994100 0.1 999242